This is the latest recevied weather packets stored in our database for station/object KX4O-13. If no packets are shown the sender has not sent any weather packets the latest 10 day(s).
| Time | Temp. | Humidity | Pressure | Rain* | Wind** | Luminosity | Snow |
|---|---|---|---|---|---|---|---|
| 1778016052 | 26.67° C | 29% | 1009 hPa | 0 mm | - | 167 W/m² | - |
| 1778015752 | 27.22° C | 30% | 1008.9 hPa | 0 mm | - | 188 W/m² | - |
| 1778015452 | 26.67° C | 29% | 1008.9 hPa | 0 mm | - | 316 W/m² | - |
| 1778015153 | 27.22° C | 28% | 1008.9 hPa | 0 mm | - | 241 W/m² | - |
| 1778014852 | 27.78° C | 27% | 1008.9 hPa | 0 mm | - | 587 W/m² | - |
| 1778014553 | 27.22° C | 28% | 1009 hPa | 0 mm | - | 383 W/m² | - |
| 1778014254 | 26.67° C | 28% | 1008.8 hPa | 0 mm | - | 283 W/m² | - |
| 1778013953 | 27.22° C | 29% | 1008.9 hPa | 0 mm | - | 343 W/m² | - |
| 1778013653 | 27.22° C | 29% | 1008.9 hPa | 0 mm | - | 510 W/m² | - |
| 1778013353 | 27.22° C | 28% | 1008.9 hPa | 0 mm | - | 308 W/m² | - |
| 1778013053 | 27.22° C | 28% | 1009 hPa | 0 mm | - | 311 W/m² | - |
| 1778012753 | 27.22° C | 29% | 1009 hPa | 0 mm | - | 497 W/m² | - |
| 1778012453 | 27.22° C | 28% | 1008.9 hPa | 0 mm | - | 503 W/m² | - |
| 1778012153 | 27.22° C | 30% | 1009.1 hPa | 0 mm | - | 534 W/m² | - |
| 1778011855 | 27.22° C | 29% | 1009.1 hPa | 0 mm | - | 492 W/m² | - |
| 1778011553 | 27.78° C | 29% | 1009 hPa | 0 mm | - | 489 W/m² | - |
| 1778011253 | 28.33° C | 28% | 1009.1 hPa | 0 mm | - | 591 W/m² | - |
| 1778010953 | 27.78° C | 29% | 1009 hPa | 0 mm | - | 610 W/m² | - |
| 1778010653 | 27.78° C | 30% | 1009.2 hPa | 0 mm | - | 663 W/m² | - |
| 1778010353 | 27.78° C | 31% | 1009.1 hPa | 0 mm | - | 587 W/m² | - |
| 1778010053 | 27.78° C | 29% | 1009.1 hPa | 0 mm | - | 612 W/m² | - |
| 1778009753 | 27.78° C | 28% | 1009.2 hPa | 0 mm | - | 671 W/m² | - |
| 1778009455 | 27.78° C | 26% | 1009.2 hPa | 0 mm | - | 664 W/m² | - |
| 1778009153 | 27.78° C | 26% | 1009.3 hPa | 0 mm | - | 594 W/m² | - |
| 1778008853 | 27.78° C | 26% | 1009.4 hPa | 0 mm | - | 689 W/m² | - |
* Rain latest hour (hover to see other rain measurements)
** Current wind speed in m/s (hover to see current wind gust speed)